SCP
0 0 -0 0 0 0 0 0 0 0 0 0 0 0 0 0 0 0 0 0 0 0 0 0 0 0 0 0 0 0 0 0 0 0 0 0 0 0 0 0 0 0 0 0 0 0 0 0 0 0 0 0 0 0
0 0 0 0 0 0 0 0 0 0 0 0 0 0 0 0 0 0 0 0 0 0 0 0 0 0 0 0 0 0 0 0 0 0 0 0 0 0 0 0 0 0 0 0 0 0 0 0 0 0 0 0 0 0
-0 -0 0 0 0 0 0 0 0 0 0 0 0 0 0 0 0 0 0 0 0 0 0 0 0 0 0 0 0 0 0 0 0 0 0 0 0 0 0 0 0 0 0 0 0 0 0 0 0 0 0 0 0 0
-0 0 0 0 0 0 0 0 0 0 0 0 0 0 0 0 0 0 0 0 0 0 0 0 0 0 0 0 0 0 0 0 0 0 0 0 0 0 0 0 0 0 0 0 0 -0 0 0 0 0 0 0 -0 0
0 0 0 0 0 0 0 0 0 0 0 0 0 0 0 0 0 0 0 0 0 0 0 0 0 0 0 0 0 0 0 0 0 0 0 0 0 0 0 0 0 0 0 0 -0 -0 0 0 0 0 0 0 0 -0
0 0 0 0 0 0 0 0 0 0 0 0 0 0 0 0 0 0 0 0 0 0 0 0 0 0 0 0 0 0 0 0 0 0 0 0 0 0 0 0 0 0 0 0 0 0 0 0 0 0 0 0 0 0
0 0 0 0 0 0 0 0 0 0 0 0 0 0 0 0 0 0 0 0 0 0 0 0 0 0 0 0 0 0 0 0 0 0 0 0 0 0 0 0 0 0 0 0 0 0 0 0 0 0 0 0 0 0
0 0 0 0 0 0 0 0 0 0 0 0 0 0 0 0 0 0 0 0 0 0 0 0 0 0 0 0 0 0 0 0 0 0 0 0 0 0 0 0 0 0 0 0 0 0 0 0 0 0 0 0 0 0
0 0 0 0 0 0 0 0 0 0 0 0 0 0 0 0 0 0 -0 0 0 0 0 0 0 0 0 0 0 0 0 0 0 0 0 0 0 0 0 0 0 0 0 0 0 0 0 0 0 0 0 0 0 0
0 0 0 0 0 0 0 0 0 0 0 0 0 0 0 0 0 0 -0 0 0 0 0 0 0 0 0 0 0 0 0 0 0 0 0 0 0 0 0 0 0 0 0 0 0 0 0 0 0 0 0 0 0 0
0 0 0 0 0 0 0 0 0 0 0 0 0 0 0 0 0 0 0 0 0 0 0 0 0 0 0 0 0 0 0 0 0 0 0 0 0 0 0 0 0 0 0 0 0 0 0 0 0 0 0 0 0 0
0 0 0 0 0 0 0 0 0 0 0 0 0 0 0 0 0 0 0 0 0 0 0 0 0 0 0 0 0 0 0 0 0 0 0 0 0 0 0 0 0 0 0 0 0 0 0 0 0 0 0 0 0 0
0 0 0 0 0 0 0 0 0 0 0 0 0 0 0 0 0 0 0 0 0 0 0 0 0 0 0 0 0 0 0 0 0 0 0 0 0 0 0 0 0 0 0 0 0 0 0 0 0 0 0 0 0 0
0 0 0 0 0 0 0 0 0 0 0 0 0 0 0 0 0 0 0 0 0 0 0 0 0 0 0 0 0 0 0 0 0 0 0 0 0 0 0 0 0 0 0 0 0 0 0 0 0 0 0 0 0 0
0 0 0 0 0 0 0 0 0 0 0 0 0 0 0 0 0 0 0 0 0 0 0 0 0 0 0 0 0 0 0 0 0 0 0 0 0 0 0 0 0 0 0 0 0 0 0 0 0 0 0 0 0 0
0 0 0 0 0 0 0 0 0 0 0 0 0 0 0 0 0 0 0 0 0 0 0 0 0 0 0 0 0 0 0 0 0 0 0 0 0 0 0 0 0 0 0 0 0 0 0 0 0 0 0 0 0 0
0 0 0 0 0 0 0 0 0 0 0 0 0 0 0 0 0 0 0 0 0 0 0 0 0 0 0 0 0 0 0 0 0 0 0 0 0 0 0 0 0 0 0 0 0 0 0 0 0 0 0 0 0 0
0 0 0 0 0 0 0 0 0 0 0 -0 0 0 0 0 0 0 0 0 0 0 0 0 0 0 0 0 0 0 0 0 0 0 0 0 0 0 0 0 0 0 0 0 0 0 0 0 0 0 0 0 0 0
0 0 0 0 0 0 0 0 0 0 -0 -0 0 0 0 0 0 0 0 0 0 0 0 0 0 0 0 0 0 0 0 0 0 0 0 0 0 0 0 0 0 0 0 0 0 0 0 0 0 0 0 0 0 0
0 0 0 0 0 0 0 0 0 0 0 -0 -0 0 -0 -0 0 0 0 0 0 0 0 0 0 0 0 0 0 0 0 -0 0 0 0 0 0 0 0 0 0 0 0 0 0 0 0 0 0 0 0 0 0 0
0 0 0 0 0 0 0 0 0 0 -0 0 0 0 -0 -0 -0 0 0 0 0 0 0 0 0 0 0 0 0 0 0 0 0 0 0 0 0 0 0 0 0 0 0 0 0 0 0 0 0 0 0 0 0 0
0 0 0 0 0 0 0 0 0 0 0 0 0 0 -0 -0 -0 0 0 0 0 0 0 0 0 0 0 -0 -0 0 0 0 0 0 0 0 0 0 0 0 0 0 0 0 0 0 0 0 0 0 0 0 0 0
0 0 0 0 0 0 0 0 0 0 0 0 0 0 0 0 -0 0 0 0 0 0 -0 0 0 0 -0 -0 -0 0 0 0 0 0 0 0 0 0 0 0 0 0 0 0 0 0 0 0 0 0 0 0 0 0
0 0 0 0 0 0 0 0 0 0 0 0 0 0 0 0 0 0 0 0 0 0 0 0 0 0 0 0 0 0 0 0 0 0 0 0 0 0 0 0 0 0 0 0 0 0 0 0 0 0 0 0 0 0
0 0 0 0 0 0 0 0 0 0 0 0 0 0 0 0 0 0 0 0 0 0 -0 -0 -0 -0 0 0 0 0 0 0 0 0 0 0 0 0 0 0 0 0 0 0 0 0 0 0 0 0 0 0 0 0
0 0 0 0 0 0 0 0 0 0 0 0 0 0 0 0 0 0 0 0 0 0 0 0 0 0 0 0 0 0 0 0 0 0 0 0 0 0 0 0 0 0 0 0 0 0 0 0 0 0 -0 -0 -0 -0
-0 0 -0 0 -0 -0 0 0 0 0 0 0 0 0 0 0 0 0 0 0 0 0 0 0 0 0 0 0 0 0 0 0 0 0 0 0 0 0 -0 -0 0 0 0 0 0 0 0 0 0 -0 -0 -0 -0 -0
0 -0 0 0 0 -0 0 -0 -0 0 0 0 0 0 0 0 0 0 0 0 0 0 0 0 0 0 0 0 0 0 0 0 0 0 0 0 0 0 0 0 0 -0 -0 0 0 0 0 0 0 0 0 0 0 0
0 0 0 0 0 0 -0 -0 -0 0 0 0 0 0 0 0 0 0 0 0 0 0 0 0 0 0 0 0 0 0 0 0 0 0 0 0 0 0 0 0 0 0 0 0 0 0 0 0 0 0 0 0 0 0
0 0 0 -0 0 -0 0 0 0 0 0 0 0 0 0 0 0 0 0 0 0 0 0 0 0 0 0 0 0 0 0 0 0 0 0 0 0 0 0 0 0 0 0 0 0 0 0 0 0 0 0 0 0 0
-0 -0 0 0 0 0 0 0 0 0 0 0 0 0 0 0 0 0 0 0 0 0 0 0 0 0 0 0 0 0 0 0 0 0 0 0 0 0 0 0 0 0 0 0 0 0 0 0 0 0 0 0 0 0
0 0 0 0 0 0 0 0 0 0 0 0 0 0 0 0 0 0 0 0 0 0 0 0 0 0 0 0 0 0 0 0 0 0 0 0 0 0 0 0 0 0 0 0 0 0 0 0 0 0 0 0 0 0
0 0 0 0 0 0 0 0 0 0 0 0 0 0 0 0 0 0 0 0 0 0 0 0 0 0 0 0 0 0 0 0 0 0 0 0 0 0 0 0 0 0 0 0 0 0 0 0 0 0 0 0 0 0
Wind_Speed_500mb
38 38 40 40 42 38 35 32 27 26 24 23 24 20 14 13 22 18 17 27 32 13 42 27 19 23 24 4 5 19 14 6 9 6 4 5 5 3 6 5 7 9 10 5 5 5 10 4 13 14 8 5 52 55
46 45 44 44 42 44 38 35 30 29 25 24 25 23 15 13 15 19 13 26 25 22 21 19 25 27 27 37 39 10 7 6 5 2 5 2 4 5 8 6 6 2 8 10 12 9 3 8 5 8 14 27 48 54
46 50 47 47 44 45 42 36 33 29 29 26 26 25 19 14 13 20 20 19 33 11 44 49 40 21 25 26 14 9 4 10 5 6 3 4 1 5 7 5 8 2 5 7 5 2 5 5 9 19 17 29 40 37
48 48 50 47 46 45 45 38 35 31 32 29 26 27 25 18 13 26 30 11 26 6 7 15 8 20 23 14 28 31 36 20 22 11 3 5 4 2 5 7 7 6 14 11 1 5 6 9 18 29 29 32 35 32
54 53 52 48 47 45 46 43 36 33 34 31 27 27 27 21 20 15 28 21 18 10 6 23 36 24 20 18 15 16 28 27 8 5 4 9 8 2 3 2 4 15 14 9 9 25 10 27 37 33 37 37 32 36
52 51 51 50 48 47 48 46 38 34 35 32 27 27 26 24 19 10 5 29 22 11 6 7 22 17 15 19 16 14 18 15 8 5 4 14 13 3 5 3 4 23 22 15 10 44 15 43 39 35 34 36 32 33
52 52 53 52 48 49 51 49 40 36 35 33 28 25 24 22 20 18 10 13 34 23 6 10 13 7 6 12 13 16 20 11 9 4 5 6 9 21 4 6 17 22 23 17 31 48 38 52 37 37 31 34 33 39
55 53 54 52 51 49 52 49 41 38 35 30 26 23 21 18 24 23 31 16 37 25 11 5 8 11 14 13 13 18 13 18 15 7 5 10 7 2 2 5 21 22 28 28 51 14 19 49 47 41 37 41 45 56
55 53 53 52 52 51 53 49 43 40 35 28 24 21 17 14 12 14 28 37 21 18 8 9 5 6 2 10 11 14 12 4 8 6 7 7 3 4 10 26 35 42 32 47 41 11 36 54 54 48 42 44 53 59
56 54 55 52 51 53 55 50 45 39 35 30 28 13 9 13 18 7 10 8 16 19 14 8 10 6 6 3 4 8 4 5 4 7 8 3 6 8 8 17 29 41 24 50 49 41 48 55 58 57 49 44 47 53
60 59 57 54 54 57 57 53 51 43 39 34 17 12 10 4 9 7 8 12 20 11 20 22 30 5 2 3 6 9 6 3 4 8 10 1 4 8 12 23 30 36 31 44 28 16 34 38 61 59 52 43 44 48
61 60 61 58 57 61 63 58 56 56 41 31 15 16 7 11 9 7 7 11 11 10 17 24 26 23 5 4 3 5 4 2 11 11 8 5 8 16 26 31 38 34 34 43 21 15 34 44 45 45 46 42 37 41
62 62 61 61 60 65 66 62 58 53 40 29 12 13 8 10 10 11 10 7 5 11 22 33 12 16 13 8 5 4 6 10 10 5 8 10 14 26 34 38 44 38 35 37 28 20 35 43 42 43 44 36 33 39
65 64 65 61 66 69 67 65 59 58 47 14 12 7 9 9 9 10 9 3 8 7 40 54 33 12 11 2 4 5 6 6 5 7 11 6 36 35 42 48 52 48 42 37 31 39 37 40 45 44 39 39 36 35
67 66 63 66 73 72 69 65 67 54 17 10 9 9 12 18 17 17 22 25 18 13 34 28 15 14 5 5 7 1 5 8 9 12 8 22 40 42 49 55 55 52 50 42 42 41 42 43 45 46 39 36 36 33
67 61 69 76 79 74 69 69 66 40 15 8 7 6 17 14 9 9 13 22 14 9 28 12 8 10 9 8 8 12 10 11 7 8 23 37 43 49 53 55 60 58 51 44 43 41 42 44 44 39 37 38 40 35
76 49 81 82 79 74 72 63 42 11 10 5 6 20 25 23 18 24 13 13 24 7 7 7 8 12 7 7 7 9 9 7 17 28 35 39 45 48 51 60 63 59 50 44 46 43 42 40 38 38 41 44 40 32
35 66 84 85 81 73 61 31 17 12 9 9 7 25 28 32 26 31 19 27 22 14 4 8 14 6 10 10 6 6 14 13 12 21 27 34 41 47 54 65 63 57 51 48 47 44 40 39 39 40 40 42 41 39
61 88 88 86 85 58 18 23 12 9 13 9 17 31 34 31 40 41 41 36 24 17 16 8 7 7 7 12 13 3 12 8 8 14 19 24 36 49 60 62 61 57 52 50 48 43 40 34 32 33 37 39 40 43
83 87 84 81 70 19 10 11 17 7 9 10 16 20 22 19 32 35 32 24 19 15 9 7 7 10 21 34 21 14 17 21 16 25 35 37 44 55 61 63 61 58 54 49 43 38 38 38 34 31 32 35 41 42
80 75 74 75 30 8 8 11 9 8 7 13 15 16 17 25 29 26 29 25 15 10 8 14 24 26 23 19 29 27 22 30 31 37 47 56 57 64 67 63 59 56 51 46 43 42 36 31 29 31 31 33 32 32
75 75 71 43 6 8 6 13 8 8 10 9 7 13 13 10 12 15 15 15 11 19 28 23 38 38 40 32 35 29 37 46 37 44 48 63 73 73 70 65 63 57 47 42 40 36 32 28 27 27 28 30 32 33
72 59 32 15 6 8 6 14 11 9 7 6 6 7 9 11 16 23 16 18 19 30 52 34 34 31 31 31 41 46 36 33 44 46 58 69 66 64 65 62 54 46 41 38 33 31 30 28 27 31 35 34 33 30
49 19 12 16 14 8 8 10 11 8 7 6 5 9 9 16 28 14 9 14 25 39 45 35 31 31 31 19 22 27 36 41 45 53 62 67 67 66 60 53 45 35 33 42 36 31 27 27 33 35 36 35 34 33
12 13 10 9 12 9 7 8 9 6 6 10 7 7 9 18 7 8 10 20 47 46 38 31 28 28 33 31 31 37 40 41 47 56 63 63 65 64 55 45 36 31 36 36 37 34 29 31 34 35 36 37 38 33
6 14 11 20 11 9 12 6 13 15 7 9 10 14 10 8 9 10 8 45 67 61 44 36 36 31 29 26 35 40 40 38 41 55 62 61 61 62 59 50 44 43 36 29 38 37 34 31 32 35 34 33 32 33
7 12 15 20 12 13 10 11 3 4 6 10 7 8 8 11 10 6 25 49 56 59 37 31 38 36 19 20 29 31 32 34 43 54 55 52 47 41 40 43 47 43 42 34 32 29 29 30 35 37 37 33 29 26
14 15 12 23 20 19 6 5 9 13 10 19 9 11 11 8 9 13 18 42 44 47 37 33 32 36 21 24 30 37 41 44 50 53 52 47 42 31 29 35 40 38 34 29 26 23 23 23 27 33 30 24 21 20
12 10 13 10 14 16 20 16 13 21 24 25 9 7 7 6 8 21 49 42 29 38 47 45 42 33 32 39 41 41 46 55 66 68 65 58 52 50 43 40 36 34 31 30 30 25 26 21 23 27 21 15 19 17
12 26 13 11 8 12 27 43 31 35 33 28 16 15 14 15 21 46 57 58 47 39 46 46 38 44 51 55 53 49 46 46 46 54 64 63 56 48 42 39 36 32 33 34 32 31 31 24 24 20 16 13 12 13
12 18 11 15 11 16 15 32 38 38 44 24 33 30 32 37 41 41 48 42 57 54 47 42 57 62 66 71 66 60 53 43 35 36 48 50 48 46 44 37 31 29 29 26 23 23 25 23 17 12 11 12 10 6
16 25 14 6 1 11 14 20 27 25 29 32 12 15 17 35 20 17 32 45 43 44 45 60 66 64 57 54 51 46 44 43 39 39 41 43 42 41 37 33 31 29 26 26 25 24 21 17 14 12 11 10 7 6
16 26 22 3 5 7 15 15 11 12 22 13 19 23 18 14 14 13 28 54 56 44 50 55 54 55 49 49 47 45 41 39 35 38 38 40 40 38 36 34 31 32 29 24 22 20 17 14 14 12 10 9 8 8
Wind_Direction_500mb
255 258 256 244 241 244 245 242 241 241 239 235 227 230 252 259 222 229 229 224 211 221 259 267 266 283 299 336 357 324 336 334 346 57 120 213 114 177 81 136 155 163 130 146 96 95 253 168 122 161 210 138 175 179
252 254 253 246 238 239 240 238 237 234 236 233 227 223 234 250 228 213 233 209 216 232 263 259 255 258 262 287 281 280 285 278 339 20 36 103 81 114 159 166 34 147 172 172 172 210 281 263 239 243 185 172 177 180
255 246 247 242 236 230 232 233 231 230 230 230 228 222 222 240 223 210 227 186 200 256 280 273 271 245 256 287 277 256 267 358 2 333 274 129 301 133 135 206 109 38 143 96 94 231 315 251 207 161 173 164 168 180
248 244 243 239 231 224 226 227 226 226 224 226 226 219 213 234 240 224 244 221 187 180 264 276 244 241 252 265 269 270 253 285 324 316 309 68 359 354 215 156 132 189 136 143 272 265 127 149 159 150 147 146 149 158
248 242 236 231 223 220 223 223 222 221 219 222 223 219 214 227 247 258 241 222 187 185 305 293 287 260 263 278 281 267 230 244 286 253 96 202 165 20 1 92 166 186 165 156 211 187 140 172 159 158 153 153 157 159
238 230 226 224 222 218 218 220 219 215 214 218 218 215 212 221 243 290 244 231 219 198 289 306 318 273 244 260 253 236 209 223 253 267 275 286 133 183 189 157 254 183 179 159 164 161 127 158 159 161 153 152 156 165
227 223 220 220 221 214 212 214 212 208 210 211 210 208 208 221 228 207 193 191 196 176 231 288 283 251 219 213 199 200 206 233 230 312 245 309 201 204 149 166 187 187 187 189 157 150 129 158 167 163 154 148 156 157
219 216 216 214 211 207 205 206 205 201 206 205 200 198 201 224 241 255 222 136 183 173 197 246 267 305 179 173 172 188 197 199 217 234 210 223 198 204 166 175 150 160 163 160 167 178 160 162 158 156 157 154 160 157
210 211 209 206 205 201 200 199 198 194 197 194 185 185 194 229 248 251 247 240 229 218 214 189 225 249 273 195 160 175 196 184 203 214 228 152 316 193 209 176 174 169 165 173 173 160 156 161 160 162 165 166 165 163
206 204 201 200 199 196 193 193 190 187 184 175 174 161 198 223 235 302 260 238 204 205 221 229 224 259 339 189 157 149 201 207 191 236 145 116 231 252 199 202 197 176 181 173 158 146 163 166 168 170 176 176 173 166
203 201 199 197 194 190 187 188 183 176 172 173 176 192 192 192 177 204 249 226 190 181 200 202 204 205 353 147 207 207 200 193 169 243 143 268 275 236 174 174 182 183 177 182 188 193 190 192 175 173 177 178 181 175
198 198 196 193 191 185 184 185 179 178 173 165 169 168 170 188 171 197 217 254 200 196 190 168 178 199 252 273 157 204 208 38 223 149 104 168 253 189 179 175 176 179 174 182 177 169 186 185 179 176 174 176 181 183
193 190 191 189 187 182 182 181 180 178 162 156 181 181 186 193 213 211 201 224 185 188 171 167 153 159 201 260 251 163 178 228 127 80 193 218 197 194 191 183 178 174 173 180 172 172 176 180 178 178 173 168 164 171
190 189 187 187 182 180 178 177 174 172 171 183 163 210 220 193 231 209 224 231 275 232 172 161 152 153 191 164 183 195 226 114 118 130 209 228 190 197 199 192 182 174 174 172 173 164 174 179 177 178 175 172 170 172
185 183 184 181 177 176 175 172 173 175 169 187 171 220 228 243 266 267 282 288 286 337 168 144 124 136 147 231 193 129 172 228 194 191 216 192 194 203 197 190 182 174 171 171 171 172 177 177 177 177 179 184 185 187
175 172 180 176 174 170 170 170 176 183 155 173 209 261 261 292 292 289 284 293 319 267 199 200 137 151 185 171 147 216 150 194 214 212 189 191 201 206 198 187 182 177 171 171 174 174 174 176 177 178 184 191 190 191
162 170 176 172 163 166 168 164 173 191 180 214 232 252 262 281 261 281 291 332 338 253 204 164 155 180 112 136 205 188 201 217 195 181 193 204 208 203 191 182 179 175 173 176 176 176 176 176 182 187 188 185 190 190
177 168 166 159 162 159 160 164 191 178 199 199 236 257 251 254 274 281 291 300 324 338 229 221 141 139 155 168 217 236 253 272 223 211 213 207 202 193 183 177 176 176 176 178 179 177 180 182 186 188 190 189 188 187
155 155 156 161 158 144 140 185 204 204 206 199 241 263 265 267 278 287 292 287 295 311 285 215 154 168 200 213 201 287 302 276 281 181 187 188 188 181 175 177 176 177 178 177 178 182 184 187 189 191 194 194 191 187
153 155 159 160 150 129 123 154 201 191 199 201 229 247 260 264 280 280 284 282 276 300 240 213 191 196 192 212 238 246 278 340 309 167 156 167 177 178 176 176 177 178 176 175 176 181 181 182 186 192 196 198 195 192
152 154 154 155 162 130 134 161 175 224 224 239 266 247 271 270 275 265 261 261 227 219 231 205 220 239 235 272 226 236 258 295 269 221 182 165 175 178 175 177 177 174 175 176 181 182 189 193 190 189 193 189 191 198
148 153 159 167 156 177 171 200 183 186 214 239 243 218 249 243 237 224 207 189 222 230 210 218 221 226 250 244 222 238 274 279 255 219 196 178 169 177 175 174 173 174 181 184 183 179 177 181 180 175 172 172 169 176
147 158 164 179 212 193 185 181 186 210 219 229 209 236 229 221 218 183 194 204 217 210 212 221 191 214 231 245 247 254 252 233 211 201 183 178 173 174 171 172 177 177 174 174 173 176 173 169 170 167 166 165 160 156
146 142 165 181 199 195 180 198 205 215 228 244 205 258 240 218 169 194 194 208 186 197 206 194 197 189 221 222 210 202 195 198 190 180 179 173 168 169 173 174 175 178 179 168 165 165 169 171 169 169 170 173 172 169
157 178 189 190 187 187 214 190 188 195 244 213 232 264 239 186 168 188 197 192 181 196 197 185 183 189 208 201 186 184 183 185 184 175 172 175 168 166 168 168 170 170 168 168 166 164 161 163 167 170 173 173 173 175
197 204 201 183 172 203 196 210 194 207 218 219 222 251 231 179 182 203 205 179 183 193 191 188 190 177 176 180 176 177 175 178 180 170 168 172 171 169 167 167 166 165 168 178 169 158 154 156 162 164 166 170 179 185
215 212 206 212 202 179 216 231 170 168 208 224 232 219 198 192 198 213 174 175 182 185 188 182 183 188 175 175 178 173 170 170 178 164 158 163 168 178 186 183 173 162 156 160 167 164 160 159 162 160 160 165 169 173
226 207 209 182 192 200 214 201 200 200 213 232 242 196 175 186 197 177 170 158 167 171 164 162 160 188 234 189 180 169 158 160 159 151 146 153 162 164 158 150 148 148 145 146 153 166 181 180 176 178 180 187 197 208
222 211 205 214 198 207 211 206 207 220 221 189 150 159 177 206 169 167 164 141 163 160 169 164 147 178 167 166 164 163 161 160 156 154 156 157 159 157 151 153 154 156 158 158 151 148 151 147 164 177 179 179 185 199
214 197 214 229 216 222 218 199 231 218 176 164 129 111 113 103 131 156 154 168 176 168 154 164 196 180 165 157 156 156 156 160 164 161 156 155 155 153 156 158 159 156 159 157 156 155 156 156 155 163 178 194 211 233
189 193 225 221 256 206 127 123 114 112 116 121 127 121 121 104 121 142 140 139 163 174 178 182 170 168 162 163 160 152 151 155 152 150 149 146 147 147 150 149 143 141 151 154 161 171 181 185 193 209 210 209 206 185
212 210 224 224 120 118 98 78 81 92 105 123 130 167 143 113 81 89 147 137 153 177 178 161 162 165 164 159 154 149 141 145 147 147 148 149 148 150 152 150 149 149 150 148 144 144 151 160 166 171 177 178 182 183
225 231 231 38 33 72 71 93 76 64 59 55 44 53 57 75 81 95 142 182 180 173 173 165 164 162 155 150 148 146 150 149 140 147 150 152 153 153 155 154 151 144 139 133 132 135 135 140 143 142 151 173 200 238
Wind_Speed_850mb
38 38 40 40 42 38 35 32 27 26 24 23 24 20 14 13 22 18 17 27 32 13 42 27 19 23 24 4 5 19 14 6 9 6 4 5 5 3 6 5 7 9 10 5 5 5 10 4 13 14 8 5 52 55
46 45 44 44 42 44 38 35 30 29 25 24 25 23 15 13 15 19 13 26 25 22 21 19 25 27 27 37 39 10 7 6 5 2 5 2 4 5 8 6 6 2 8 10 12 9 3 8 5 8 14 27 48 54
46 50 47 47 44 45 42 36 33 29 29 26 26 25 19 14 13 20 20 19 33 11 44 49 40 21 25 26 14 9 4 10 5 6 3 4 1 5 7 5 8 2 5 7 5 2 5 5 9 19 17 29 40 37
48 48 50 47 46 45 45 38 35 31 32 29 26 27 25 18 13 26 30 11 26 6 7 15 8 20 23 14 28 31 36 20 22 11 3 5 4 2 5 7 7 6 14 11 1 5 6 9 18 29 29 32 35 32
54 53 52 48 47 45 46 43 36 33 34 31 27 27 27 21 20 15 28 21 18 10 6 23 36 24 20 18 15 16 28 27 8 5 4 9 8 2 3 2 4 15 14 9 9 25 10 27 37 33 37 37 32 36
52 51 51 50 48 47 48 46 38 34 35 32 27 27 26 24 19 10 5 29 22 11 6 7 22 17 15 19 16 14 18 15 8 5 4 14 13 3 5 3 4 23 22 15 10 44 15 43 39 35 34 36 32 33
52 52 53 52 48 49 51 49 40 36 35 33 28 25 24 22 20 18 10 13 34 23 6 10 13 7 6 12 13 16 20 11 9 4 5 6 9 21 4 6 17 22 23 17 31 48 38 52 37 37 31 34 33 39
55 53 54 52 51 49 52 49 41 38 35 30 26 23 21 18 24 23 31 16 37 25 11 5 8 11 14 13 13 18 13 18 15 7 5 10 7 2 2 5 21 22 28 28 51 14 19 49 47 41 37 41 45 56
55 53 53 52 52 51 53 49 43 40 35 28 24 21 17 14 12 14 28 37 21 18 8 9 5 6 2 10 11 14 12 4 8 6 7 7 3 4 10 26 35 42 32 47 41 11 36 54 54 48 42 44 53 59
56 54 55 52 51 53 55 50 45 39 35 30 28 13 9 13 18 7 10 8 16 19 14 8 10 6 6 3 4 8 4 5 4 7 8 3 6 8 8 17 29 41 24 50 49 41 48 55 58 57 49 44 47 53
60 59 57 54 54 57 57 53 51 43 39 34 17 12 10 4 9 7 8 12 20 11 20 22 30 5 2 3 6 9 6 3 4 8 10 1 4 8 12 23 30 36 31 44 28 16 34 38 61 59 52 43 44 48
61 60 61 58 57 61 63 58 56 56 41 31 15 16 7 11 9 7 7 11 11 10 17 24 26 23 5 4 3 5 4 2 11 11 8 5 8 16 26 31 38 34 34 43 21 15 34 44 45 45 46 42 37 41
62 62 61 61 60 65 66 62 58 53 40 29 12 13 8 10 10 11 10 7 5 11 22 33 12 16 13 8 5 4 6 10 10 5 8 10 14 26 34 38 44 38 35 37 28 20 35 43 42 43 44 36 33 39
65 64 65 61 66 69 67 65 59 58 47 14 12 7 9 9 9 10 9 3 8 7 40 54 33 12 11 2 4 5 6 6 5 7 11 6 36 35 42 48 52 48 42 37 31 39 37 40 45 44 39 39 36 35
67 66 63 66 73 72 69 65 67 54 17 10 9 9 12 18 17 17 22 25 18 13 34 28 15 14 5 5 7 1 5 8 9 12 8 22 40 42 49 55 55 52 50 42 42 41 42 43 45 46 39 36 36 33
67 61 69 76 79 74 69 69 66 40 15 8 7 6 17 14 9 9 13 22 14 9 28 12 8 10 9 8 8 12 10 11 7 8 23 37 43 49 53 55 60 58 51 44 43 41 42 44 44 39 37 38 40 35
76 49 81 82 79 74 72 63 42 11 10 5 6 20 25 23 18 24 13 13 24 7 7 7 8 12 7 7 7 9 9 7 17 28 35 39 45 48 51 60 63 59 50 44 46 43 42 40 38 38 41 44 40 32
35 66 84 85 81 73 61 31 17 12 9 9 7 25 28 32 26 31 19 27 22 14 4 8 14 6 10 10 6 6 14 13 12 21 27 34 41 47 54 65 63 57 51 48 47 44 40 39 39 40 40 42 41 39
61 88 88 86 85 58 18 23 12 9 13 9 17 31 34 31 40 41 41 36 24 17 16 8 7 7 7 12 13 3 12 8 8 14 19 24 36 49 60 62 61 57 52 50 48 43 40 34 32 33 37 39 40 43
83 87 84 81 70 19 10 11 17 7 9 10 16 20 22 19 32 35 32 24 19 15 9 7 7 10 21 34 21 14 17 21 16 25 35 37 44 55 61 63 61 58 54 49 43 38 38 38 34 31 32 35 41 42
80 75 74 75 30 8 8 11 9 8 7 13 15 16 17 25 29 26 29 25 15 10 8 14 24 26 23 19 29 27 22 30 31 37 47 56 57 64 67 63 59 56 51 46 43 42 36 31 29 31 31 33 32 32
75 75 71 43 6 8 6 13 8 8 10 9 7 13 13 10 12 15 15 15 11 19 28 23 38 38 40 32 35 29 37 46 37 44 48 63 73 73 70 65 63 57 47 42 40 36 32 28 27 27 28 30 32 33
72 59 32 15 6 8 6 14 11 9 7 6 6 7 9 11 16 23 16 18 19 30 52 34 34 31 31 31 41 46 36 33 44 46 58 69 66 64 65 62 54 46 41 38 33 31 30 28 27 31 35 34 33 30
49 19 12 16 14 8 8 10 11 8 7 6 5 9 9 16 28 14 9 14 25 39 45 35 31 31 31 19 22 27 36 41 45 53 62 67 67 66 60 53 45 35 33 42 36 31 27 27 33 35 36 35 34 33
12 13 10 9 12 9 7 8 9 6 6 10 7 7 9 18 7 8 10 20 47 46 38 31 28 28 33 31 31 37 40 41 47 56 63 63 65 64 55 45 36 31 36 36 37 34 29 31 34 35 36 37 38 33
6 14 11 20 11 9 12 6 13 15 7 9 10 14 10 8 9 10 8 45 67 61 44 36 36 31 29 26 35 40 40 38 41 55 62 61 61 62 59 50 44 43 36 29 38 37 34 31 32 35 34 33 32 33
7 12 15 20 12 13 10 11 3 4 6 10 7 8 8 11 10 6 25 49 56 59 37 31 38 36 19 20 29 31 32 34 43 54 55 52 47 41 40 43 47 43 42 34 32 29 29 30 35 37 37 33 29 26
14 15 12 23 20 19 6 5 9 13 10 19 9 11 11 8 9 13 18 42 44 47 37 33 32 36 21 24 30 37 41 44 50 53 52 47 42 31 29 35 40 38 34 29 26 23 23 23 27 33 30 24 21 20
12 10 13 10 14 16 20 16 13 21 24 25 9 7 7 6 8 21 49 42 29 38 47 45 42 33 32 39 41 41 46 55 66 68 65 58 52 50 43 40 36 34 31 30 30 25 26 21 23 27 21 15 19 17
12 26 13 11 8 12 27 43 31 35 33 28 16 15 14 15 21 46 57 58 47 39 46 46 38 44 51 55 53 49 46 46 46 54 64 63 56 48 42 39 36 32 33 34 32 31 31 24 24 20 16 13 12 13
12 18 11 15 11 16 15 32 38 38 44 24 33 30 32 37 41 41 48 42 57 54 47 42 57 62 66 71 66 60 53 43 35 36 48 50 48 46 44 37 31 29 29 26 23 23 25 23 17 12 11 12 10 6
16 25 14 6 1 11 14 20 27 25 29 32 12 15 17 35 20 17 32 45 43 44 45 60 66 64 57 54 51 46 44 43 39 39 41 43 42 41 37 33 31 29 26 26 25 24 21 17 14 12 11 10 7 6
16 26 22 3 5 7 15 15 11 12 22 13 19 23 18 14 14 13 28 54 56 44 50 55 54 55 49 49 47 45 41 39 35 38 38 40 40 38 36 34 31 32 29 24 22 20 17 14 14 12 10 9 8 8
Wind_Direction_850mb
255 258 256 244 241 244 245 242 241 241 239 235 227 230 252 259 222 229 229 224 211 221 259 267 266 283 299 336 357 324 336 334 346 57 120 213 114 177 81 136 155 163 130 146 96 95 253 168 122 161 210 138 175 179
252 254 253 246 238 239 240 238 237 234 236 233 227 223 234 250 228 213 233 209 216 232 263 259 255 258 262 287 281 280 285 278 339 20 36 103 81 114 159 166 34 147 172 172 172 210 281 263 239 243 185 172 177 180
255 246 247 242 236 230 232 233 231 230 230 230 228 222 222 240 223 210 227 186 200 256 280 273 271 245 256 287 277 256 267 358 2 333 274 129 301 133 135 206 109 38 143 96 94 231 315 251 207 161 173 164 168 180
248 244 243 239 231 224 226 227 226 226 224 226 226 219 213 234 240 224 244 221 187 180 264 276 244 241 252 265 269 270 253 285 324 316 309 68 359 354 215 156 132 189 136 143 272 265 127 149 159 150 147 146 149 158
248 242 236 231 223 220 223 223 222 221 219 222 223 219 214 227 247 258 241 222 187 185 305 293 287 260 263 278 281 267 230 244 286 253 96 202 165 20 1 92 166 186 165 156 211 187 140 172 159 158 153 153 157 159
238 230 226 224 222 218 218 220 219 215 214 218 218 215 212 221 243 290 244 231 219 198 289 306 318 273 244 260 253 236 209 223 253 267 275 286 133 183 189 157 254 183 179 159 164 161 127 158 159 161 153 152 156 165
227 223 220 220 221 214 212 214 212 208 210 211 210 208 208 221 228 207 193 191 196 176 231 288 283 251 219 213 199 200 206 233 230 312 245 309 201 204 149 166 187 187 187 189 157 150 129 158 167 163 154 148 156 157
219 216 216 214 211 207 205 206 205 201 206 205 200 198 201 224 241 255 222 136 183 173 197 246 267 305 179 173 172 188 197 199 217 234 210 223 198 204 166 175 150 160 163 160 167 178 160 162 158 156 157 154 160 157
210 211 209 206 205 201 200 199 198 194 197 194 185 185 194 229 248 251 247 240 229 218 214 189 225 249 273 195 160 175 196 184 203 214 228 152 316 193 209 176 174 169 165 173 173 160 156 161 160 162 165 166 165 163
206 204 201 200 199 196 193 193 190 187 184 175 174 161 198 223 235 302 260 238 204 205 221 229 224 259 339 189 157 149 201 207 191 236 145 116 231 252 199 202 197 176 181 173 158 146 163 166 168 170 176 176 173 166
203 201 199 197 194 190 187 188 183 176 172 173 176 192 192 192 177 204 249 226 190 181 200 202 204 205 353 147 207 207 200 193 169 243 143 268 275 236 174 174 182 183 177 182 188 193 190 192 175 173 177 178 181 175
198 198 196 193 191 185 184 185 179 178 173 165 169 168 170 188 171 197 217 254 200 196 190 168 178 199 252 273 157 204 208 38 223 149 104 168 253 189 179 175 176 179 174 182 177 169 186 185 179 176 174 176 181 183
193 190 191 189 187 182 182 181 180 178 162 156 181 181 186 193 213 211 201 224 185 188 171 167 153 159 201 260 251 163 178 228 127 80 193 218 197 194 191 183 178 174 173 180 172 172 176 180 178 178 173 168 164 171
190 189 187 187 182 180 178 177 174 172 171 183 163 210 220 193 231 209 224 231 275 232 172 161 152 153 191 164 183 195 226 114 118 130 209 228 190 197 199 192 182 174 174 172 173 164 174 179 177 178 175 172 170 172
185 183 184 181 177 176 175 172 173 175 169 187 171 220 228 243 266 267 282 288 286 337 168 144 124 136 147 231 193 129 172 228 194 191 216 192 194 203 197 190 182 174 171 171 171 172 177 177 177 177 179 184 185 187
175 172 180 176 174 170 170 170 176 183 155 173 209 261 261 292 292 289 284 293 319 267 199 200 137 151 185 171 147 216 150 194 214 212 189 191 201 206 198 187 182 177 171 171 174 174 174 176 177 178 184 191 190 191
162 170 176 172 163 166 168 164 173 191 180 214 232 252 262 281 261 281 291 332 338 253 204 164 155 180 112 136 205 188 201 217 195 181 193 204 208 203 191 182 179 175 173 176 176 176 176 176 182 187 188 185 190 190
177 168 166 159 162 159 160 164 191 178 199 199 236 257 251 254 274 281 291 300 324 338 229 221 141 139 155 168 217 236 253 272 223 211 213 207 202 193 183 177 176 176 176 178 179 177 180 182 186 188 190 189 188 187
155 155 156 161 158 144 140 185 204 204 206 199 241 263 265 267 278 287 292 287 295 311 285 215 154 168 200 213 201 287 302 276 281 181 187 188 188 181 175 177 176 177 178 177 178 182 184 187 189 191 194 194 191 187
153 155 159 160 150 129 123 154 201 191 199 201 229 247 260 264 280 280 284 282 276 300 240 213 191 196 192 212 238 246 278 340 309 167 156 167 177 178 176 176 177 178 176 175 176 181 181 182 186 192 196 198 195 192
152 154 154 155 162 130 134 161 175 224 224 239 266 247 271 270 275 265 261 261 227 219 231 205 220 239 235 272 226 236 258 295 269 221 182 165 175 178 175 177 177 174 175 176 181 182 189 193 190 189 193 189 191 198
148 153 159 167 156 177 171 200 183 186 214 239 243 218 249 243 237 224 207 189 222 230 210 218 221 226 250 244 222 238 274 279 255 219 196 178 169 177 175 174 173 174 181 184 183 179 177 181 180 175 172 172 169 176
147 158 164 179 212 193 185 181 186 210 219 229 209 236 229 221 218 183 194 204 217 210 212 221 191 214 231 245 247 254 252 233 211 201 183 178 173 174 171 172 177 177 174 174 173 176 173 169 170 167 166 165 160 156
146 142 165 181 199 195 180 198 205 215 228 244 205 258 240 218 169 194 194 208 186 197 206 194 197 189 221 222 210 202 195 198 190 180 179 173 168 169 173 174 175 178 179 168 165 165 169 171 169 169 170 173 172 169
157 178 189 190 187 187 214 190 188 195 244 213 232 264 239 186 168 188 197 192 181 196 197 185 183 189 208 201 186 184 183 185 184 175 172 175 168 166 168 168 170 170 168 168 166 164 161 163 167 170 173 173 173 175
197 204 201 183 172 203 196 210 194 207 218 219 222 251 231 179 182 203 205 179 183 193 191 188 190 177 176 180 176 177 175 178 180 170 168 172 171 169 167 167 166 165 168 178 169 158 154 156 162 164 166 170 179 185
215 212 206 212 202 179 216 231 170 168 208 224 232 219 198 192 198 213 174 175 182 185 188 182 183 188 175 175 178 173 170 170 178 164 158 163 168 178 186 183 173 162 156 160 167 164 160 159 162 160 160 165 169 173
226 207 209 182 192 200 214 201 200 200 213 232 242 196 175 186 197 177 170 158 167 171 164 162 160 188 234 189 180 169 158 160 159 151 146 153 162 164 158 150 148 148 145 146 153 166 181 180 176 178 180 187 197 208
222 211 205 214 198 207 211 206 207 220 221 189 150 159 177 206 169 167 164 141 163 160 169 164 147 178 167 166 164 163 161 160 156 154 156 157 159 157 151 153 154 156 158 158 151 148 151 147 164 177 179 179 185 199
214 197 214 229 216 222 218 199 231 218 176 164 129 111 113 103 131 156 154 168 176 168 154 164 196 180 165 157 156 156 156 160 164 161 156 155 155 153 156 158 159 156 159 157 156 155 156 156 155 163 178 194 211 233
189 193 225 221 256 206 127 123 114 112 116 121 127 121 121 104 121 142 140 139 163 174 178 182 170 168 162 163 160 152 151 155 152 150 149 146 147 147 150 149 143 141 151 154 161 171 181 185 193 209 210 209 206 185
212 210 224 224 120 118 98 78 81 92 105 123 130 167 143 113 81 89 147 137 153 177 178 161 162 165 164 159 154 149 141 145 147 147 148 149 148 150 152 150 149 149 150 148 144 144 151 160 166 171 177 178 182 183
225 231 231 38 33 72 71 93 76 64 59 55 44 53 57 75 81 95 142 182 180 173 173 165 164 162 155 150 148 146 150 149 140 147 150 152 153 153 155 154 151 144 139 133 132 135 135 140 143 142 151 173 200 238